Date,TemperatureHighF,TemperatureAvgF,TemperatureLowF,DewpointHighF,DewpointAvgF,DewpointLowF,HumidityHigh,HumidityAvg,HumidityLow,PressureMaxIn,PressureMinIn,WindSpeedMaxMPH,WindSpeedAvgMPH,GustSpeedMaxMPH,PrecipitationSumIn
2013-1-1,24.4,18.2,14.5,15.9,11.6,7.8,82,75,67,30.36,30.22,10,0,10,0.06
2013-1-2,30.3,20.1,0.0,24.6,13.6,-5.5,80,76,71,30.30,30.15,6,0,6,0.02
2013-1-3,30.3,23.9,17.7,23.6,17.7,11.6,81,77,74,30.47,30.29,9,1,9,0.00
2013-1-4,35.2,23.5,14.1,25.1,16.4,8.5,81,75,66,30.40,30.20,7,1,7,0.00
2013-1-5,39.2,32.2,24.4,30.3,24.5,17.6,79,73,64,30.27,30.09,14,3,14,0.02
2013-1-6,40.8,30.5,19.4,28.6,21.0,11.7,76,68,60,30.41,30.21,12,1,13,0.00
2013-1-7,47.8,37.4,0.0,31.4,25.3,-9.2,68,62,52,30.22,30.00,13,3,13,0.00
2013-1-8,51.2,38.8,32.1,35.1,28.1,24.0,73,66,53,30.23,29.94,16,2,16,0.00
2013-1-9,52.8,38.4,28.2,37.9,28.8,21.8,79,69,56,30.46,30.23,9,0,9,0.00
2013-1-10,42.9,40.3,37.5,39.0,34.8,29.1,87,81,68,30.33,29.74,6,0,6,0.25
2013-1-11,55.0,47.0,33.2,45.7,39.9,24.4,89,77,40,29.89,29.51,18,5,18,0.02
2013-1-12,33.2,23.3,15.6,24.3,12.2,5.8,70,62,55,30.18,29.88,22,6,22,0.00
2013-1-13,24.9,16.2,9.6,8.9,5.1,2.4,73,62,48,30.38,30.16,13,4,13,0.00
2013-1-14,29.3,20.3,11.1,14.5,8.9,2.8,72,61,49,30.51,30.38,5,0,5,0.00
2013-1-15,36.3,25.6,16.8,19.1,13.4,8.4,70,60,46,30.39,30.16,5,0,5,0.00
2013-1-16,53.7,34.6,21.0,34.4,22.6,11.1,73,62,46,30.28,30.05,17,3,17,0.00
2013-1-17,52.1,38.0,27.1,34.3,26.6,20.8,80,65,45,30.51,30.28,8,0,8,0.00
2013-1-18,61.3,44.9,33.4,35.7,29.6,23.7,72,57,37,30.36,30.02,21,5,21,0.00
2013-1-19,61.1,43.4,0.0,33.0,26.8,-17.3,71,54,31,30.32,29.97,19,3,19,0.00
2013-1-20,37.7,27.1,18.6,25.3,13.7,6.8,67,57,44,30.45,30.30,13,1,13,0.00
2013-1-21,26.4,19.6,15.6,14.2,8.7,6.0,70,63,56,30.46,30.34,11,1,11,0.00
2013-1-22,35.2,23.1,14.5,17.4,10.4,4.1,67,58,48,30.37,30.23,6,0,6,0.00
2013-1-23,43.5,28.4,19.2,25.6,16.2,9.9,71,61,46,30.46,30.20,12,2,12,0.00
2013-1-24,27.6,20.9,10.0,12.7,7.2,0.5,69,56,44,30.48,30.17,12,2,12,0.00
2013-1-25,49.6,34.1,19.9,27.9,18.6,9.2,64,54,42,30.28,30.17,7,0,7,0.00
2013-1-26,60.9,44.5,31.2,31.3,24.5,19.9,66,48,28,30.26,30.03,17,2,17,0.02
2013-1-27,59.0,46.3,39.0,52.1,40.0,31.1,87,79,62,30.03,29.72,16,2,16,0.04
2013-1-28,72.3,53.7,33.6,55.7,43.9,29.0,88,72,42,29.88,29.63,20,3,20,0.00
2013-1-29,63.6,37.2,31.2,56.6,31.7,27.5,87,81,63,29.78,29.61,20,5,20,0.00
2013-1-30,31.1,23.0,16.3,27.7,17.3,9.4,88,79,68,30.00,29.69,65,9,65,0.00
2013-1-31,19.2,15.4,8.6,12.0,6.9,-0.1,80,69,58,30.48,29.95,22,4,22,0.00
2013-2-1,29.8,16.8,0.0,17.6,8.2,-10.6,76,68,60,30.45,30.14,8,1,8,0.00
2013-2-2,49.6,36.3,25.3,36.8,26.6,17.2,78,68,60,30.26,30.15,12,2,12,0.00
2013-2-3,54.5,40.3,28.0,32.1,26.4,20.4,75,59,41,30.29,29.86,14,1,14,0.00
2013-2-4,39.7,34.0,27.6,28.0,24.5,20.9,76,68,56,30.04,29.84,13,2,13,0.00
2013-2-5,57.0,38.8,24.6,36.8,26.8,18.7,81,64,42,30.11,29.93,10,1,10,0.00
2013-2-6,64.0,48.1,34.8,48.0,36.5,24.3,79,65,48,30.10,29.85,22,2,22,0.00
2013-2-7,51.6,43.6,28.9,45.2,34.6,23.0,87,72,48,30.27,29.88,23,4,23,0.75
2013-2-8,42.4,32.7,27.3,33.1,26.5,22.4,83,78,67,30.37,30.16,8,0,8,0.00
2013-2-9,55.2,40.4,32.5,42.6,33.1,26.7,84,76,61,30.16,29.68,22,2,22,0.02
2013-2-10,44.4,39.6,33.0,40.8,30.4,22.3,87,70,58,30.02,29.44,21,7,21,0.00
2013-2-11,42.6,33.2,25.5,23.2,20.0,16.5,73,59,43,30.24,30.02,13,2,13,0.00
2013-2-12,44.2,33.2,24.9,27.9,22.0,16.2,75,64,52,30.22,30.00,7,1,7,0.00
2013-2-13,54.3,38.7,24.6,30.2,23.4,16.3,73,56,35,30.00,29.86,11,1,11,0.00
2013-2-14,46.7,39.0,28.0,31.1,25.4,18.1,76,59,43,30.31,29.90,26,6,26,0.00
2013-2-15,39.9,27.5,16.7,20.1,15.8,9.7,77,62,44,30.45,30.30,20,4,20,0.00
2013-2-16,46.9,29.4,15.9,24.9,16.9,8.7,75,61,42,30.38,30.03,20,1,20,0.00
2013-2-17,67.1,44.0,26.4,39.0,27.1,17.2,71,54,32,30.03,29.60,11,1,11,0.00
2013-2-18,47.1,38.6,24.6,32.1,24.9,13.7,80,58,47,30.15,29.51,28,8,28,0.00
2013-2-19,35.2,26.9,19.9,15.1,11.4,4.5,71,54,35,30.38,30.15,15,2,15,0.00
2013-2-20,28.7,22.2,17.2,13.7,7.8,2.9,63,54,46,30.35,30.12,8,1,8,0.00
2013-2-21,24.9,21.8,19.2,17.9,14.9,10.5,83,75,55,30.14,29.80,16,3,16,0.00
2013-2-22,25.5,17.8,9.6,15.9,10.9,4.4,82,74,66,30.12,29.89,12,3,12,0.07
2013-2-23,35.7,17.7,0.0,25.5,10.5,-8.6,76,73,66,30.10,29.92,8,1,8,0.04
2013-2-24,40.2,30.7,19.5,29.0,22.6,13.6,79,72,63,30.02,29.90,12,1,12,0.00
2013-2-25,35.7,33.0,30.7,28.6,27.3,25.7,84,79,73,30.02,29.83,20,6,20,0.00
2013-2-26,33.0,30.1,27.6,25.8,24.5,22.8,86,80,71,29.98,29.80,18,7,18,0.00
2013-2-27,37.9,31.0,26.4,26.4,24.1,22.0,86,76,62,30.18,29.96,21,8,21,0.02
2013-2-28,33.9,31.7,28.0,25.2,24.0,21.9,79,73,68,30.27,30.16,15,4,15,0.00
2013-3-1,30.7,27.6,20.8,23.0,18.5,13.4,74,69,59,30.38,30.24,18,5,18,0.00
2013-3-2,40.2,27.1,14.3,26.4,18.0,8.9,80,69,55,30.39,30.14,6,0,6,0.00
2013-3-3,48.7,37.4,27.6,36.3,28.2,20.1,77,69,62,30.14,29.70,11,1,11,0.00
2013-3-4,41.5,37.3,32.9,33.2,30.1,26.2,83,75,70,30.09,29.67,21,4,21,0.00
2013-3-5,37.7,31.0,24.6,30.2,18.3,14.5,84,59,48,30.42,30.09,27,8,27,0.00
2013-3-6,45.5,30.6,19.2,26.7,19.3,12.1,76,63,47,30.46,30.22,6,0,6,0.00
2013-3-7,62.6,42.2,26.9,36.1,28.1,20.3,77,60,35,30.23,30.06,12,1,12,0.00
2013-3-8,63.3,49.8,36.6,46.2,37.6,27.4,72,63,51,30.14,29.92,10,1,10,0.00
2013-3-9,58.8,52.8,41.1,53.7,46.6,35.9,86,80,65,29.93,29.60,14,3,14,0.18
2013-3-10,40.8,29.0,23.1,35.9,24.0,18.1,87,82,76,30.06,29.67,29,12,29,0.00
2013-3-11,41.5,28.2,15.2,22.7,17.5,9.9,81,66,45,30.07,29.97,16,3,16,0.00
2013-3-12,45.1,37.0,30.0,27.4,22.0,17.6,75,56,37,30.41,30.07,27,4,27,0.00
2013-3-13,53.4,36.0,20.8,30.2,22.3,13.2,75,59,41,30.49,30.26,8,0,8,0.00
2013-3-14,72.5,52.5,35.4,42.0,33.8,23.3,70,51,33,30.26,30.12,10,1,10,0.00
2013-3-15,83.4,60.4,42.6,47.5,38.4,29.5,70,47,26,30.12,29.70,11,1,11,0.00
2013-3-16,53.2,39.4,31.8,40.1,30.3,24.9,79,70,61,30.13,29.83,18,5,18,0.00
2013-3-17,40.8,33.9,29.8,32.4,28.0,24.9,83,79,71,30.10,29.76,14,1,14,0.04
2013-3-18,53.4,40.8,32.9,32.1,27.1,18.2,87,62,35,30.11,29.81,29,4,29,0.00
2013-3-19,47.8,36.5,32.7,37.6,25.5,17.0,81,65,48,30.31,30.11,12,0,12,0.06
2013-3-20,42.9,33.2,21.7,30.6,20.2,13.4,81,60,42,30.46,30.10,10,2,10,0.02
2013-3-21,44.7,35.5,30.0,27.8,20.5,14.6,78,55,45,30.10,29.86,15,1,15,0.00
2013-3-22,37.9,32.2,28.2,30.3,26.2,23.1,82,79,73,30.04,29.96,7,0,7,0.02
2013-3-23,34.3,32.1,28.5,27.6,26.4,24.6,86,79,72,30.07,29.96,23,4,23,0.00
2013-3-24,33.9,27.9,23.5,24.6,19.9,15.4,88,73,56,30.19,30.02,24,11,24,0.04
2013-3-25,33.6,27.5,22.4,20.1,17.5,14.1,78,66,56,30.41,30.18,24,8,24,0.00
2013-3-26,44.4,30.1,16.7,27.6,18.8,10.0,76,64,49,30.44,30.26,7,0,7,0.00
2013-3-27,60.9,43.9,31.2,36.1,29.0,21.0,70,57,39,30.27,30.14,9,1,9,0.00
2013-3-28,65.4,48.5,30.5,39.4,32.5,23.5,76,56,35,30.24,30.13,6,0,6,0.00
2013-3-29,73.0,56.8,42.4,48.7,41.6,34.1,74,58,40,30.23,30.07,6,0,6,0.00
2013-3-30,68.0,58.7,50.7,54.5,48.0,39.4,83,69,54,30.10,29.94,14,1,14,0.02
2013-3-31,63.1,53.2,42.6,42.9,37.1,29.7,84,58,33,30.09,29.98,16,3,16,0.02
2013-4-1,50.7,38.6,29.6,33.2,22.2,17.0,76,53,37,30.35,30.07,20,4,20,0.00
2013-4-2,55.9,41.7,30.3,28.8,22.2,17.5,61,47,33,30.36,30.25,8,0,8,0.00
2013-4-3,50.9,42.0,32.5,27.4,24.3,19.9,64,50,39,30.39,30.28,4,0,4,0.00
2013-4-4,64.2,47.7,31.8,39.9,31.8,23.1,74,55,39,30.29,30.11,6,0,6,0.00
2013-4-5,73.4,55.0,38.4,44.8,37.4,29.2,78,54,33,30.18,29.80,21,3,21,0.00
2013-4-6,73.9,62.0,54.5,46.5,42.8,37.4,67,51,36,29.88,29.70,18,5,18,0.00
2013-4-7,78.6,58.1,48.0,50.6,43.3,36.3,85,60,32,29.89,29.69,14,1,14,0.86
2013-4-8,77.3,63.9,52.5,62.2,55.7,48.1,87,76,58,29.76,29.66,8,1,8,0.00
2013-4-9,68.9,53.3,32.9,61.2,48.1,29.5,89,83,69,30.03,29.59,24,5,24,0.96
2013-4-10,32.9,31.2,30.0,30.0,28.1,26.9,89,88,86,30.05,29.83,25,2,25,0.14
2013-4-11,39.9,33.2,28.4,27.9,26.0,23.7,87,75,59,29.95,29.80,18,2,18,0.00
2013-4-12,53.2,40.4,28.0,34.2,28.4,22.6,81,64,46,30.08,29.87,23,4,23,0.00
2013-4-13,71.7,53.1,35.4,50.0,39.0,27.5,75,60,44,30.09,29.62,12,1,12,0.00
2013-4-14,70.5,60.7,46.2,52.8,41.7,27.3,65,51,32,29.81,29.45,27,6,27,0.00
2013-4-15,51.9,45.7,41.1,31.1,27.9,25.4,62,50,41,30.07,29.76,14,3,14,0.00
2013-4-16,46.9,42.3,37.5,33.4,28.5,26.5,69,58,49,30.20,30.02,19,4,19,0.00
2013-4-17,44.0,41.3,38.1,40.5,37.0,33.2,89,85,67,30.11,29.69,22,4,22,0.86
2013-4-18,37.9,34.6,30.7,34.7,28.6,23.9,89,79,66,30.07,29.76,26,10,26,0.06
2013-4-19,53.7,40.5,28.2,32.3,27.1,22.2,79,61,41,30.15,30.03,19,3,19,0.00
2013-4-20,59.3,46.6,34.8,38.0,31.6,24.2,66,57,43,30.21,30.07,6,0,6,0.00
2013-4-21,70.5,58.0,46.0,46.8,41.3,36.2,70,55,42,30.18,30.08,17,2,17,0.00
2013-4-22,55.4,47.8,34.3,46.6,40.0,29.5,87,75,61,30.24,29.98,21,4,21,0.16
2013-4-23,35.4,32.2,28.7,29.8,26.7,24.1,88,81,70,30.29,30.14,19,4,19,0.10
2013-4-24,58.8,42.2,25.5,37.9,29.0,19.2,77,61,40,30.29,30.17,11,1,11,0.00
2013-4-25,70.7,53.5,35.2,44.5,36.6,27.0,79,55,36,30.32,30.11,12,2,12,0.00
2013-4-26,58.1,53.3,49.4,48.2,43.4,36.0,82,70,51,30.23,30.09,13,1,13,0.03
2013-4-27,66.7,54.7,48.3,52.2,46.7,44.0,86,76,57,30.23,30.04,5,0,5,0.00
2013-4-28,81.3,62.7,45.3,60.0,51.0,40.4,86,68,48,30.05,29.78,12,2,12,0.00
2013-4-29,87.0,71.0,55.2,62.9,55.9,47.7,79,60,42,29.82,29.61,14,2,14,0.00
2013-4-30,86.0,75.0,65.1,62.7,56.4,49.5,66,53,43,29.82,29.64,18,5,18,0.00
2013-5-1,68.7,44.6,0.0,51.2,37.0,-11.3,88,74,53,30.41,29.82,22,7,22,0.28
2013-5-2,47.4,39.3,32.9,33.0,30.3,27.0,89,72,48,30.54,30.35,20,8,20,0.35
2013-5-3,53.7,43.8,32.9,31.3,28.1,25.1,74,56,36,30.41,30.04,22,6,22,0.00
2013-5-4,44.0,41.6,37.0,37.9,33.8,27.7,84,74,56,30.16,29.97,20,7,20,0.00
2013-5-5,56.8,47.8,41.1,47.1,41.5,37.1,86,79,69,30.22,30.13,13,3,13,0.00
2013-5-6,68.3,54.5,45.1,53.6,46.2,0.0,87,75,54,30.20,30.09,6,0,6,0.00
2013-5-7,76.2,62.7,50.3,57.7,51.0,44.4,84,67,50,30.12,29.98,7,0,7,0.00
2013-5-8,78.0,66.3,56.1,61.5,56.1,50.6,86,71,56,30.06,29.88,13,1,13,1.20
2013-5-9,66.7,59.4,55.2,58.0,53.6,49.7,87,82,70,30.05,29.89,12,2,12,0.08
2013-5-10,69.0,59.9,52.5,51.9,49.5,45.7,85,70,49,30.16,30.05,12,3,12,0.00
2013-5-11,65.1,57.8,50.0,46.1,38.3,29.5,80,51,31,30.32,30.13,16,4,16,0.00
2013-5-12,68.5,56.2,42.4,44.6,37.9,30.1,68,51,38,30.33,30.15,7,0,7,0.00
2013-5-13,81.8,65.8,50.1,57.5,48.8,40.1,69,56,41,30.18,29.96,8,1,8,0.00
2013-5-14,91.7,75.1,60.4,60.8,54.2,49.6,71,50,32,29.96,29.81,12,2,12,0.00
2013-5-15,88.3,75.4,65.4,63.5,58.1,52.6,73,56,43,29.92,29.84,10,1,10,0.00
2013-5-16,78.4,68.7,61.5,63.5,59.0,55.8,85,72,56,29.95,29.84,6,0,6,0.00
2013-5-17,83.4,71.6,59.3,64.5,59.6,53.4,82,67,51,29.97,29.86,8,0,8,0.00
2013-5-18,81.6,73.0,65.1,70.8,64.9,58.4,82,76,68,29.95,29.69,6,0,6,0.00
2013-5-20,73.2,66.3,59.9,62.5,54.7,48.3,74,66,60,29.81,29.69,5,0,5,0.00
2013-5-21,70.3,61.1,53.0,51.5,48.6,45.6,82,65,49,29.86,29.77,12,2,12,0.00
2013-5-22,69.6,55.9,0.0,53.2,45.8,-12.3,82,69,55,30.04,29.84,13,2,13,0.00
2013-5-23,61.8,54.2,48.7,52.4,47.4,43.9,85,78,71,30.25,30.04,6,0,6,0.00
2013-5-24,76.2,65.7,55.7,60.4,54.4,49.1,80,68,54,30.29,30.09,12,1,12,0.00
2013-5-25,84.5,74.4,66.7,66.4,63.2,59.2,84,69,54,30.15,29.98,15,2,16,0.00
2013-5-26,83.1,73.8,67.2,70.2,65.0,61.6,84,75,63,30.05,29.86,17,2,17,0.00
2013-5-27,82.9,73.0,62.4,70.4,64.8,58.3,88,76,63,29.90,29.61,20,3,20,0.02
2013-5-28,86.1,75.4,68.5,72.9,67.2,63.4,87,76,61,29.76,29.65,13,1,13,0.00
2013-5-29,82.9,69.8,0.0,69.1,62.2,-4.4,89,77,61,29.76,29.57,16,3,16,1.20
2013-5-30,75.2,64.1,58.4,64.1,58.0,54.3,90,81,57,29.77,29.60,13,1,13,0.16
2013-5-31,80.2,71.0,61.8,61.9,58.1,53.7,86,66,41,29.84,29.67,10,0,10,0.02
2013-6-1,67.6,61.3,54.3,54.8,49.3,44.7,72,65,59,30.10,29.82,14,4,14,0.00
2013-6-2,68.3,59.2,48.3,48.6,45.9,42.6,82,63,46,30.19,30.06,11,1,11,0.00
2013-6-3,76.8,65.4,53.4,57.7,52.4,46.0,78,64,47,30.08,29.85,10,1,10,0.00
2013-6-4,80.7,71.6,65.1,67.5,62.2,56.7,87,73,59,30.01,29.82,11,0,11,0.02
2013-6-5,69.9,65.2,58.2,62.3,56.7,51.9,89,75,60,30.08,29.96,14,2,14,0.11
2013-6-6,72.6,64.0,52.8,54.7,52.2,47.5,82,67,49,30.08,30.00,8,0,8,0.00
2013-6-7,75.9,65.9,53.4,55.1,51.6,46.7,79,61,46,30.10,29.95,10,1,10,0.00
2013-6-8,82.4,68.3,59.9,62.9,56.8,50.7,87,68,51,29.97,29.75,18,2,18,0.71
2013-6-9,80.9,69.4,56.1,58.5,54.7,50.3,88,63,39,29.93,29.86,12,2,12,0.00
2013-6-10,88.5,74.5,58.2,71.2,61.1,50.8,81,64,48,29.96,29.81,10,1,10,0.00
2013-6-11,96.4,82.6,71.4,68.2,64.3,61.1,73,56,36,29.90,29.77,17,2,17,0.00
2013-6-12,92.1,82.3,70.5,71.1,65.1,55.0,69,57,40,30.08,29.73,19,2,19,0.00
2013-6-13,82.2,71.6,59.3,62.7,57.8,51.0,76,63,50,30.16,30.02,12,2,12,0.00
2013-6-14,97.1,81.5,68.3,73.9,66.0,61.0,80,61,39,30.03,29.84,16,2,16,0.00
2013-6-15,80.0,76.4,72.8,70.5,65.9,61.8,82,70,61,30.04,29.89,7,0,7,0.06
2013-6-16,83.8,75.4,68.7,71.3,67.3,64.3,87,77,63,30.05,29.96,12,1,12,0.00
2013-6-17,84.3,77.0,70.3,68.9,65.8,62.2,85,70,48,30.07,29.94,10,1,10,0.00
2013-6-18,87.9,74.6,66.3,68.1,63.6,60.0,83,70,46,30.10,30.02,12,1,12,0.06
2013-6-19,88.1,76.1,66.5,68.7,63.6,60.4,82,67,47,30.06,29.96,12,1,12,0.00
2013-6-20,91.7,80.9,70.5,74.2,68.7,61.6,79,67,54,30.00,29.86,16,2,16,0.00
2013-6-21,95.9,84.2,75.5,72.6,69.2,66.2,74,62,43,29.95,29.87,20,4,20,0.00
2013-6-22,90.5,82.7,74.4,70.4,67.0,0.0,73,60,48,30.00,29.83,22,2,22,0.02
2013-6-23,90.6,77.5,66.9,71.6,65.6,59.8,84,68,50,29.95,29.85,22,2,22,0.00
2013-6-24,86.1,78.9,0.0,72.1,65.6,-11.6,73,64,55,29.95,29.81,15,3,15,1.04
2013-6-25,93.5,82.6,67.2,72.7,68.6,60.3,86,64,49,29.95,29.67,18,2,18,0.35
2013-6-26,94.8,85.0,73.5,70.7,67.6,0.0,81,59,37,29.95,29.80,61,1,61,0.00
2013-6-27,87.0,79.6,69.4,76.4,70.8,65.3,88,75,65,30.05,29.90,18,2,18,0.26
2013-6-28,86.3,75.6,0.0,70.1,60.5,-3.5,88,63,39,30.07,29.98,13,1,13,0.05
2013-6-29,82.5,74.0,63.6,59.2,55.8,52.8,73,55,37,30.04,29.95,16,2,16,0.00
2013-6-30,76.6,68.8,59.3,58.7,54.8,52.0,81,62,46,30.14,30.02,16,2,16,0.00
2013-7-1,78.6,69.0,55.5,56.0,52.0,48.5,79,57,38,30.23,30.14,15,2,15,0.00
2013-7-2,81.1,71.3,58.8,57.8,53.3,49.8,76,55,39,30.21,30.12,11,0,11,0.00
2013-7-3,85.6,73.5,62.7,58.2,54.0,49.9,66,52,37,30.16,30.02,7,0,7,0.00
2013-7-4,82.2,75.2,63.6,61.5,57.4,50.8,67,54,47,30.07,29.96,9,0,9,0.00
2013-7-5,91.0,79.5,67.6,62.6,58.1,54.4,69,50,36,30.00,29.89,18,2,18,0.00
2013-7-6,88.8,78.7,72.8,65.8,61.7,55.0,67,57,45,29.94,29.88,16,2,16,0.00
2013-7-7,96.0,83.8,73.9,66.9,64.0,62.0,68,53,38,29.98,29.91,19,3,19,0.00
2013-7-8,98.4,86.6,73.9,69.7,66.6,62.9,76,53,37,30.07,29.96,13,3,14,0.02
2013-7-9,101.3,88.4,74.1,72.3,68.8,65.2,78,54,36,30.05,29.89,14,2,14,0.14
2013-7-10,87.9,79.9,72.1,70.8,66.6,63.9,81,65,47,30.12,30.01,15,2,15,0.00
2013-7-11,89.6,79.8,69.2,67.5,64.1,60.5,74,60,47,30.15,30.00,9,1,9,0.00
2013-7-12,97.3,84.1,72.6,72.6,67.1,61.1,69,58,44,30.05,29.95,8,0,8,0.00
2013-7-13,91.0,80.9,0.0,74.3,68.4,-11.6,79,66,56,30.04,29.95,10,0,10,0.00
2013-7-14,87.0,77.2,0.0,69.5,62.1,-16.9,81,60,43,30.16,29.98,8,1,8,0.00
2013-7-15,89.4,77.1,68.1,67.2,62.4,0.0,75,62,45,30.23,30.14,8,0,8,0.00
2013-7-16,90.5,78.0,66.7,67.1,63.8,59.8,81,63,46,30.31,30.23,7,0,7,0.00
2013-7-17,90.3,81.2,70.1,70.1,66.1,62.1,79,61,48,30.37,30.23,8,0,8,0.00
2013-7-18,93.5,81.2,71.2,70.9,66.3,62.9,78,62,43,30.25,30.05,15,2,15,0.00
2013-7-19,96.6,86.9,73.9,70.4,67.4,63.2,73,54,41,30.04,29.91,11,1,11,0.00
2013-7-20,91.2,76.2,69.4,72.1,67.2,64.5,88,75,51,30.02,29.91,21,1,21,0.33
2013-7-21,84.2,75.5,67.4,71.7,68.4,63.7,89,79,65,29.98,29.86,7,0,7,0.00
2013-7-22,90.6,80.9,72.8,75.7,70.5,66.7,86,72,55,29.91,29.83,13,1,13,0.00
2013-7-23,80.7,73.8,68.7,69.0,65.0,61.8,84,74,65,30.05,29.89,20,4,20,0.00
2013-7-24,85.1,75.2,63.6,64.1,61.4,57.7,82,64,44,30.14,30.01,9,1,10,0.00
2013-7-25,75.7,71.1,68.5,69.2,63.5,59.4,88,77,64,30.13,30.05,8,0,8,0.08
2013-7-26,82.5,73.4,65.4,68.4,62.4,52.8,90,71,49,30.17,30.04,19,2,19,0.08
2013-7-27,65.8,61.8,57.0,58.4,54.8,50.9,88,78,66,30.21,30.07,4,0,4,0.12
2013-7-28,64.4,62.9,61.8,59.5,57.4,55.6,89,83,78,30.11,30.06,6,0,6,0.20
2013-7-29,67.8,63.8,61.7,65.3,61.2,58.8,92,91,89,30.10,30.00,8,0,8,2.04
2013-7-30,75.3,70.3,67.1,69.2,66.5,0.0,93,89,81,30.16,30.02,7,0,7,0.00
2013-7-31,83.1,75.4,67.2,69.3,66.8,63.8,90,76,60,30.20,30.11,5,0,5,0.00
2013-8-1,87.6,80.4,67.6,71.7,68.1,63.2,87,67,55,30.18,29.96,14,0,14,0.00
2013-8-2,88.3,75.5,64.2,75.9,68.8,60.6,90,80,65,30.07,29.89,23,2,23,1.76
2013-8-3,80.4,75.1,69.4,70.6,68.6,65.1,88,81,71,30.17,29.99,12,1,12,0.00
2013-8-4,77.5,72.4,68.1,71.0,67.7,64.7,90,85,80,30.16,30.05,9,1,9,0.16
2013-8-5,81.6,75.3,71.0,74.4,70.2,67.3,89,84,74,30.07,29.90,6,0,6,0.02
2013-8-6,87.0,79.6,71.2,76.1,72.1,67.8,89,78,65,29.95,29.85,3,0,5,0.00
2013-8-7,80.6,76.6,71.9,73.9,68.7,63.9,89,77,64,30.03,29.87,12,1,12,0.08
2013-8-8,74.1,68.4,0.0,67.5,61.7,-6.3,88,79,69,30.08,29.96,10,1,10,0.00
2013-8-9,76.8,71.8,67.2,66.6,64.6,62.7,87,78,68,30.20,30.07,6,0,6,0.00
2013-8-10,82.9,73.8,64.0,69.4,64.0,59.4,87,72,57,30.26,30.13,6,0,6,0.00
2013-8-11,85.1,75.7,66.3,70.3,65.5,60.7,83,71,57,30.19,30.05,6,0,6,0.02
2013-8-12,81.5,74.6,66.2,68.3,66.1,61.5,89,76,58,30.12,30.03,9,0,9,0.08
2013-8-13,79.5,73.4,68.5,67.1,63.8,60.4,86,73,59,30.20,30.09,9,1,9,0.00
2013-8-14,78.9,71.4,63.6,64.9,61.0,57.0,81,70,55,30.23,30.11,8,0,8,0.00
2013-8-15,81.1,68.3,64.2,67.8,60.6,57.1,87,77,60,30.15,30.02,20,1,20,0.62
2013-8-16,76.2,69.3,63.1,65.0,61.4,59.2,88,77,65,30.20,30.10,6,0,6,0.00
2013-8-17,78.4,70.5,63.5,61.4,58.9,56.6,81,68,55,30.24,30.14,7,0,7,0.00
2013-8-18,81.1,71.6,61.5,64.4,59.9,53.6,79,67,56,30.21,30.09,7,0,7,0.00
2013-8-19,85.2,75.5,67.1,69.5,64.6,59.2,79,70,58,30.15,30.02,14,1,14,0.00
2013-8-20,88.7,77.8,68.1,69.4,66.0,62.1,82,68,52,30.08,30.00,14,1,14,0.47
2013-8-21,90.6,78.2,69.0,71.6,66.5,62.6,81,68,52,30.08,30.02,11,0,11,0.00
2013-8-22,87.9,78.2,68.9,70.8,66.4,62.0,81,68,54,30.14,30.03,6,0,6,0.00
2013-8-23,89.6,79.9,72.3,73.7,69.1,65.2,80,70,58,30.12,30.01,10,0,10,0.00
2013-8-24,92.4,82.2,72.6,74.0,69.7,65.8,80,67,52,30.14,30.06,15,1,15,0.00
2013-8-25,93.2,82.2,72.3,75.0,69.7,66.0,81,67,51,30.21,30.12,13,1,13,0.00
2013-8-26,93.5,82.8,73.2,73.5,69.0,66.3,81,64,47,30.18,30.07,14,1,14,0.00
2013-8-27,93.0,82.0,72.1,71.0,66.4,62.2,79,61,43,30.09,30.01,11,1,11,0.00
2013-8-28,89.4,79.8,69.6,72.3,67.5,62.0,80,67,56,30.10,30.03,10,0,10,0.00
2013-8-29,96.4,83.9,74.6,73.9,69.3,66.4,80,63,43,30.07,29.97,6,0,6,0.00
2013-8-30,98.0,84.8,71.7,74.5,67.7,62.6,75,58,41,30.01,29.88,8,0,8,0.04
2013-8-31,93.3,83.6,74.8,75.5,70.5,65.4,86,66,48,29.95,29.85,9,0,9,0.00
2013-9-1,83.4,78.6,69.6,72.1,65.9,56.9,79,66,46,30.07,29.79,15,2,15,0.00
2013-9-2,79.7,71.4,59.9,63.3,59.5,54.4,83,67,52,30.15,30.05,11,1,11,0.00
2013-9-3,83.4,73.3,61.3,63.1,58.7,53.1,76,62,44,30.17,30.07,4,0,4,0.00
2013-9-4,86.5,75.3,64.2,64.8,60.2,55.2,74,60,44,30.22,30.10,2,0,2,0.00
2013-9-5,87.6,78.3,67.8,68.8,63.3,57.3,75,61,47,30.24,30.13,4,0,4,0.00
2013-9-6,93.9,81.5,69.6,70.5,65.1,60.5,74,59,43,30.16,29.99,11,0,11,0.00
2013-9-7,98.7,84.5,71.9,71.9,66.5,62.4,74,56,38,30.02,29.92,11,0,11,0.00
2013-9-8,100.2,86.4,74.8,71.2,65.7,62.4,67,51,36,29.96,29.87,7,0,7,0.00
2013-9-9,95.3,83.8,73.2,67.2,61.5,56.2,62,48,35,29.97,29.89,17,1,17,0.00
2013-9-10,94.6,83.2,72.6,67.5,62.4,58.3,64,50,40,30.10,29.96,16,2,16,0.00
2013-9-11,94.1,80.0,69.9,68.7,63.4,57.4,87,59,41,30.22,30.07,19,1,19,0.26
2013-9-12,79.5,73.1,68.7,69.1,65.3,55.0,90,78,59,30.25,30.15,15,2,15,0.21
2013-9-13,74.3,68.0,61.7,54.5,52.4,51.2,71,58,47,30.25,30.11,9,1,9,0.00
2013-9-14,80.7,70.3,61.5,62.1,55.8,50.0,68,61,47,30.13,29.95,11,0,11,0.00
2013-9-15,78.2,69.5,60.0,66.2,60.8,56.1,87,74,65,30.24,29.95,29,3,29,0.10
2013-9-16,60.0,58.8,57.9,56.8,55.7,54.5,90,89,87,30.29,30.20,18,2,18,0.18
2013-9-17,79.8,68.3,59.7,69.9,63.2,56.8,91,84,69,30.21,29.94,13,1,13,0.00
2013-9-18,90.3,78.5,68.9,70.1,66.0,63.5,85,68,47,29.98,29.78,19,2,19,0.00
2013-9-19,87.6,75.5,64.2,68.9,62.8,51.7,73,65,53,30.07,29.84,11,1,14,0.02
2013-9-20,71.9,63.0,54.1,52.0,49.1,46.6,80,62,44,30.18,30.04,12,0,12,0.00
2013-9-21,81.1,66.9,53.7,58.5,52.8,47.0,81,63,41,30.08,29.92,6,0,6,0.00
2013-9-22,80.4,68.3,56.8,56.0,51.9,47.7,77,58,39,29.99,29.85,11,0,11,0.00
2013-9-23,78.6,68.0,57.7,54.9,51.1,46.5,69,56,40,29.88,29.74,18,2,18,0.00
2013-9-24,70.1,64.6,59.3,56.8,53.9,50.4,78,69,56,29.97,29.76,58,2,58,0.00
2013-9-25,78.2,66.0,52.5,61.5,56.0,48.4,87,72,53,29.98,29.80,7,0,7,0.00
2013-9-26,88.7,74.9,65.4,63.4,59.5,56.1,73,60,43,29.85,29.77,16,1,16,0.00
2013-9-27,87.4,77.0,68.5,65.6,60.1,57.0,68,57,45,29.92,29.80,22,2,22,0.00
2013-9-28,75.0,63.4,53.4,62.0,49.8,41.6,85,63,46,30.15,29.77,14,2,14,0.21
2013-9-29,76.1,61.5,49.6,50.7,45.2,40.3,73,57,37,30.15,29.97,8,0,8,0.00
2013-9-30,80.9,65.7,52.1,55.5,50.4,44.6,79,60,40,29.99,29.82,13,0,13,0.00
2013-10-1,83.1,69.6,56.8,61.4,55.8,48.7,78,63,47,30.00,29.87,7,0,7,0.00
2013-10-2,82.7,72.4,64.2,68.7,62.6,58.2,86,72,54,30.02,29.88,12,0,12,0.00
2013-10-3,82.9,72.4,61.3,69.4,64.5,0.0,90,77,62,29.91,29.72,15,2,15,0.18
2013-10-4,87.0,72.2,50.7,69.3,60.2,35.6,85,67,46,30.07,29.71,20,3,20,0.14
2013-10-5,58.6,49.7,44.2,36.4,33.1,31.0,62,53,41,30.10,29.98,20,2,20,0.00
2013-10-6,64.5,51.9,43.8,43.7,35.7,29.8,71,55,32,30.10,29.97,14,3,14,0.00
2013-10-7,73.2,57.7,44.2,45.9,39.0,30.8,69,51,34,30.20,30.07,7,0,7,0.00
2013-10-8,77.3,63.1,50.5,49.0,44.2,38.8,66,51,36,30.09,29.97,19,2,19,0.00
2013-10-9,79.7,66.4,55.5,55.0,49.9,44.6,69,56,40,30.05,29.97,15,1,15,0.00
2013-10-10,81.5,68.6,57.3,60.2,55.1,49.6,77,63,48,30.04,29.83,14,1,14,0.00
2013-10-11,79.8,68.8,57.5,58.8,50.7,41.1,77,55,28,29.97,29.74,21,2,21,0.00
2013-10-12,66.0,56.4,44.4,42.9,38.9,36.8,77,54,35,30.31,29.97,11,1,11,0.00
2013-10-13,69.6,58.2,47.6,43.7,39.9,36.0,69,52,36,30.42,30.27,16,1,16,0.00
2013-10-14,62.4,59.6,54.6,57.9,50.0,41.2,87,72,50,30.28,29.83,14,1,14,0.25
2013-10-15,57.3,49.8,43.1,52.2,38.8,35.0,83,67,52,30.19,29.94,16,3,16,0.00
2013-10-16,55.7,49.0,40.8,36.8,35.2,32.1,73,60,44,30.19,30.04,10,0,10,0.00
2013-10-17,62.7,49.3,39.3,43.5,37.1,33.0,80,64,40,30.13,29.98,11,1,11,0.00
2013-10-18,42.6,37.1,34.1,34.3,31.8,30.1,87,81,71,30.23,30.12,9,0,9,0.18
2013-10-19,63.1,46.0,33.2,43.5,36.1,29.4,87,71,44,30.13,29.90,14,0,14,0.00
2013-10-20,64.0,53.5,43.3,44.0,39.3,34.4,72,59,46,30.06,29.85,9,1,9,0.00
2013-10-21,58.2,48.3,37.2,38.6,35.5,30.8,80,62,46,30.19,30.01,7,0,7,0.00
2013-10-22,60.9,50.9,42.9,42.4,37.8,32.5,75,61,49,30.19,29.98,16,2,16,0.00
2013-10-23,60.6,47.0,0.0,43.9,36.2,-12.3,79,67,51,30.24,30.05,17,1,17,0.00
2013-10-24,47.1,43.0,40.1,35.9,30.0,25.5,79,61,44,30.47,30.24,10,1,10,0.00
2013-10-25,58.1,45.2,33.9,33.6,28.6,23.3,67,53,38,30.46,30.15,12,1,12,0.00
2013-10-26,57.3,47.7,39.9,38.7,32.0,25.5,80,56,38,30.26,30.10,11,1,11,0.00
2013-10-27,69.0,50.0,33.9,40.4,31.2,23.3,68,50,35,30.21,29.92,60,1,60,0.00
2013-10-28,61.1,52.4,44.6,52.6,42.3,30.1,83,69,49,30.14,29.97,58,0,58,0.02
2013-10-29,61.3,55.3,51.6,58.4,52.1,47.5,90,89,83,30.10,29.92,18,1,18,0.14
2013-10-30,54.6,51.0,47.1,51.6,48.2,44.0,91,90,88,30.03,29.81,4,0,4,0.13
2013-10-31,60.4,50.3,43.1,46.4,41.5,34.7,89,74,49,29.82,29.63,10,1,10,0.02
2013-11-1,59.7,49.5,42.8,41.3,35.9,32.5,70,60,43,30.12,29.75,14,2,14,0.02
2013-11-2,57.0,45.8,35.2,35.0,31.5,28.0,76,59,40,30.30,30.11,7,1,7,0.00
2013-11-3,62.0,51.4,42.6,39.1,34.5,29.5,60,53,42,30.15,29.79,20,3,20,0.00
2013-11-4,59.7,53.0,46.5,44.0,40.2,36.8,72,62,53,30.12,29.80,13,2,13,0.00
2013-11-5,57.7,49.7,36.3,54.2,44.9,32.1,88,84,69,30.12,29.84,16,2,16,0.12
2013-11-6,41.7,36.3,33.8,33.6,30.5,28.2,85,80,73,30.35,30.09,12,1,12,0.00
2013-11-7,53.7,42.0,31.1,36.5,31.5,26.2,83,68,47,30.47,30.30,5,0,5,0.00
2013-11-8,65.1,51.9,39.9,40.0,35.4,31.4,73,55,38,30.31,29.84,20,3,20,0.00
2013-11-9,62.9,51.6,40.8,40.2,34.2,31.2,73,53,36,30.35,30.00,10,1,10,0.02
2013-11-10,60.6,50.0,39.5,41.4,35.9,29.8,73,59,47,30.43,30.23,58,1,58,0.00
2013-11-11,51.4,40.3,26.7,47.3,33.1,13.4,87,76,57,30.73,30.18,20,4,20,0.00
2013-11-12,31.8,26.6,24.0,14.3,11.2,9.9,60,52,45,30.75,30.65,14,1,14,0.00
2013-11-13,53.7,37.0,23.3,29.6,20.1,9.8,64,51,39,30.65,30.11,18,2,18,0.00
2013-11-14,57.2,45.0,38.4,32.9,26.0,19.6,61,48,39,30.11,29.96,12,1,12,0.08
2013-11-15,60.0,46.4,33.0,43.9,34.4,24.6,74,64,48,29.97,29.66,11,1,11,0.00
2013-11-16,72.3,59.0,51.9,52.0,44.2,33.1,81,60,35,29.66,29.36,20,3,20,0.00
2013-11-17,61.3,53.1,38.4,49.1,33.2,24.6,73,49,25,30.16,29.34,26,6,26,0.06
2013-11-18,59.0,43.5,30.9,35.7,27.1,22.1,73,55,34,30.33,30.14,8,0,8,0.00
2013-11-19,64.2,49.9,38.3,36.2,28.2,22.5,59,45,29,30.24,29.91,14,2,14,0.00
2013-11-20,65.3,54.2,48.0,44.3,36.9,27.7,69,53,42,29.95,29.80,12,1,12,0.00
2013-11-21,48.0,32.3,22.8,39.4,26.0,16.9,84,78,69,30.57,29.95,19,3,19,0.00
2013-11-22,27.6,23.5,17.9,16.9,14.7,10.6,78,69,60,30.71,30.56,9,0,9,0.00
2013-11-23,27.3,24.2,19.9,17.6,13.0,8.4,70,62,49,30.83,30.64,15,4,15,0.00
2013-11-24,28.7,23.3,16.3,15.8,11.3,7.8,70,60,50,30.75,30.27,8,1,8,0.00
2013-11-25,39.3,31.2,27.3,26.6,20.1,14.1,74,63,58,30.27,30.20,9,1,9,0.00
2013-11-26,36.3,28.0,18.1,23.6,15.8,6.1,77,61,39,30.47,30.25,58,3,58,0.00
2013-11-27,38.3,25.5,14.1,18.6,12.3,5.1,69,58,44,30.47,30.14,7,0,7,0.00
2013-11-28,35.7,29.6,23.5,23.0,19.2,14.6,74,65,59,30.49,30.14,13,2,13,0.00
2013-11-29,55.5,37.6,24.4,33.9,24.4,17.1,76,61,42,30.49,30.18,14,1,14,0.00
2013-11-30,53.4,40.9,30.7,37.1,29.1,22.4,75,63,53,30.18,30.10,4,0,6,0.00
2013-12-1,54.3,40.4,27.1,39.4,30.6,21.4,82,69,54,30.15,29.87,6,0,6,0.00
2013-12-2,60.0,46.0,36.3,39.3,33.6,29.1,76,63,45,29.87,29.61,10,0,10,0.00
2013-12-3,60.4,45.3,36.6,40.9,34.4,29.8,77,66,45,29.68,29.56,12,2,12,0.00
2013-12-4,36.8,25.7,17.9,31.8,19.5,7.4,85,77,62,30.16,29.63,22,6,22,0.00
2013-12-5,17.9,15.2,10.5,8.1,2.8,0.3,67,58,50,30.44,30.16,12,3,12,0.00
2013-12-6,15.4,11.3,6.4,0.5,-3.1,-5.5,60,52,46,30.67,30.42,12,2,12,0.00
2013-12-7,19.9,11.5,0.8,5.9,-0.8,-7.3,68,58,47,30.71,30.33,9,2,9,0.00
2013-12-8,22.6,18.4,8.4,16.5,11.1,3.2,80,73,60,30.33,30.00,14,0,14,0.00
2013-12-9,14.9,8.6,1.5,3.8,0.5,-4.9,80,70,60,30.44,30.22,7,0,7,0.00
2013-12-10,39.0,24.1,11.1,24.0,12.9,2.5,70,62,53,30.33,30.14,58,1,58,0.00
2013-12-11,24.6,17.7,13.2,17.6,6.4,1.1,75,61,50,30.68,30.23,13,2,13,0.00
2013-12-12,46.0,27.5,12.7,25.7,13.5,1.4,65,56,44,30.57,30.12,8,0,8,0.00
2013-12-13,44.9,33.2,24.6,33.0,24.7,15.3,78,71,60,30.12,29.82,10,1,10,0.00
2013-12-14,30.0,24.7,19.4,22.7,17.2,13.2,80,73,62,30.27,30.03,12,3,12,0.00
2013-12-15,55.2,36.2,20.1,33.5,23.3,14.2,81,62,41,30.23,30.01,7,1,7,0.00
2013-12-16,60.2,42.9,29.4,34.2,26.5,18.1,66,53,36,30.20,30.02,7,0,7,0.00
2013-12-17,49.4,37.1,28.2,31.6,23.7,17.6,79,60,41,30.37,30.20,10,1,10,0.00
2013-12-18,64.2,46.7,31.6,36.1,28.4,16.9,61,50,34,30.20,29.77,16,2,16,0.00
2013-12-19,51.6,42.4,22.1,43.2,32.4,15.7,77,68,56,29.87,29.67,13,2,13,0.00
2013-12-20,21.9,18.0,14.1,15.7,11.9,9.1,81,77,73,30.05,29.87,14,2,14,0.00
2013-12-21,24.6,22.0,19.5,18.9,15.8,12.5,85,77,73,29.95,29.72,11,2,11,0.00
2013-12-22,22.8,19.3,9.1,18.0,13.9,3.6,85,79,74,30.39,29.86,9,2,9,0.00
2013-12-23,14.3,11.4,6.0,7.3,5.0,0.9,80,75,69,30.64,30.39,4,0,4,0.00
2013-12-24,27.1,19.0,9.1,22.8,13.3,2.4,84,78,74,30.54,30.15,11,1,11,0.00
2013-12-25,40.1,29.5,19.2,30.7,22.8,15.0,86,76,65,30.38,30.28,9,0,9,0.02
2013-12-26,39.7,29.9,21.5,28.2,21.6,15.1,78,71,63,30.34,30.20,10,0,10,0.02
2013-12-27,44.9,33.2,0.0,32.0,24.5,-7.4,80,71,57,30.36,30.18,8,0,8,0.00
2013-12-28,48.7,37.1,0.0,34.6,28.0,-7.4,79,70,57,30.18,29.88,21,1,21,0.00
2013-12-29,30.0,15.6,11.3,22.3,2.8,-2.0,73,57,45,30.41,30.09,58,4,58,0.00
2013-12-30,32.1,21.6,11.1,20.3,10.0,-1.2,68,61,55,30.33,30.17,9,1,9,0.00
2013-12-31,48.0,33.0,20.4,31.4,22.6,13.8,78,66,52,30.34,30.02,16,1,16,0.00
2014-1-1,29.6,13.8,0.0,21.1,7.6,-6.0,79,76,70,30.41,30.04,19,5,19,0.00
2014-1-2,19.2,11.8,3.3,11.2,4.9,-2.8,78,73,68,30.47,30.39,8,1,8,0.00